Location: Krasnoyarskiy Pitomnik
(51.1333°N, 71.6167°E)
Time: 21:38:26
(UTC+00:00)

Altair - Pass Details

Date: 22 April 2024
Orbit: 1501 x 1682 km, 47.2° (Epoch: 19 May)

Event Time Altitude Azimuth Distance (km) Brightness Sun altitude
Rises 14:44:12 0° 242° (WSW) 4,918 10.7 -4.1°
Reaches altitude 10° 14:47:25 10° 240° (WSW) 3,919 10.1 -4.5°
Maximum altitude 14:57:15 63° 163° (SSE) 1,793 7.7 -5.9°
Drops below altitude 10° 15:06:46 10° 85° (E) 3,799 9.1 -7.2°
Sets 15:09:50 0° 83° (E) 4,760 9.6 -7.6°
